Location: El Bakhil
(32.7726°N, 5.5387°W)
Time: 00:23:32
(UTC+00:00)

Hubble Space Telescope - Pass Details

Date: 03 December 2021
Orbit: 535 x 538 km, 28.5° (Epoch: 23 January)

Event Time Altitude Azimuth Distance (km) Brightness Sun altitude
Exits shadow 05:18:23 30° 194° (SSW) 960 2.0 -22.6°
Maximum altitude 05:18:24 30° 194° (SSW) 960 2.0 -22.6°
Drops below altitude 10° 05:22:01 10° 132° (SE) 1,772 4.3 -21.9°
Sets 05:24:27 0° 121° (ESE) 2,661 5.6 -21.4°
